Location: Moscow
(55.7500°N, 37.5830°E)
Time: 18:51:59
(UTC+03:00)

Vanguard 1 - Pass Details

Date: 07 December 2021
Orbit: 652 x 3830 km, 34.2° (Epoch: 22 January)

Event Time Altitude Azimuth Distance (km) Brightness Sun altitude
Rises 22:00:22 0° 199° (SSW) 6,730 14.2 -48.0°
Enters shadow 22:03:07 - 193° (SSW) 6,407 14.0 -48.3°
Reaches altitude 10° 22:05:48 10° 187° (S) 6,138 - -48.6°
Maximum altitude 22:20:26 25° 142° (SE) 5,629 - -50.1°
Drops below altitude 10° 22:36:31 10° 98° (E) 6,825 - -51.7°
Sets 22:42:57 0° 88° (E) 7,617 - -52.3°
